Time,TemperatureF,DewpointF,PressureIn,WindDirection,WindDirectionDegrees,WindSpeedMPH,WindSpeedGustMPH,Humidity,HourlyPrecipIn,Conditions,Clouds,dailyrainin,SoftwareType,DateUTC
2013-05-27 14:11:00,65.0,37.0,29.88,SSW,193,0.0,12.0,35,0.00,,,0.00,,2013-05-27 18:11:00,
2013-05-27 14:22:00,65.0,37.0,29.88,SSW,193,0.0,12.0,35,0.00,,,0.00,,2013-05-27 18:22:00,
2013-05-27 14:32:00,65.0,37.0,29.88,SSW,193,0.0,12.0,35,0.00,,,0.00,,2013-05-27 18:32:00,
2013-05-27 14:42:00,65.0,37.0,29.88,SSW,193,0.0,12.0,35,0.00,,,0.00,,2013-05-27 18:42:00,
2013-05-27 14:52:00,65.0,36.0,29.89,WSW,251,6.0,6.0,34,0.00,,,0.00,,2013-05-27 18:52:00,
2013-05-27 15:01:00,65.0,36.0,29.89,WSW,251,6.0,6.0,34,0.00,,,0.00,,2013-05-27 19:01:00,
2013-05-27 15:11:00,65.0,36.0,29.89,WSW,251,6.0,6.0,34,0.00,,,0.00,,2013-05-27 19:11:00,
2013-05-27 15:22:00,65.0,36.0,29.89,WSW,251,6.0,6.0,34,0.00,,,0.00,,2013-05-27 19:22:00,
2013-05-27 15:32:00,65.0,33.0,29.89,West,260,5.0,20.0,30,0.00,,,0.00,,2013-05-27 19:32:00,
2013-05-27 15:42:00,65.0,33.0,29.89,West,260,5.0,20.0,30,0.00,,,0.00,,2013-05-27 19:42:00,
2013-05-27 15:52:00,66.0,37.0,29.89,SW,223,8.0,8.0,34,0.00,,,0.00,,2013-05-27 19:52:00,
2013-05-27 16:02:00,66.0,37.0,29.89,SW,223,8.0,8.0,34,0.00,,,0.00,,2013-05-27 20:02:00,
2013-05-27 16:11:00,66.0,37.0,29.89,SW,223,8.0,8.0,34,0.00,,,0.00,,2013-05-27 20:11:00,
2013-05-27 16:22:00,66.0,37.0,29.89,SW,223,8.0,8.0,34,0.00,,,0.00,,2013-05-27 20:22:00,
2013-05-27 16:32:00,66.0,37.0,29.89,SW,223,8.0,8.0,34,0.00,,,0.00,,2013-05-27 20:32:00,
2013-05-27 18:40:00,62.0,32.0,29.93,WSW,239,5.0,6.0,32,0.00,,,0.00,,2013-05-27 22:40:00,
2013-05-27 18:42:00,63.0,33.0,29.93,WSW,246,6.0,12.0,32,0.00,,,0.00,,2013-05-27 22:42:00,
2013-05-27 18:53:00,63.0,33.0,29.93,WSW,246,6.0,12.0,32,0.00,,,0.00,,2013-05-27 22:53:00,
2013-05-27 19:02:00,62.0,32.0,29.93,WSW,239,5.0,6.0,32,0.00,,,0.00,,2013-05-27 23:02:00,
2013-05-27 19:12:00,62.0,32.0,29.93,WSW,239,5.0,6.0,32,0.00,,,0.00,,2013-05-27 23:12:00,
2013-05-27 19:22:00,62.0,32.0,29.93,WSW,239,5.0,6.0,32,0.00,,,0.00,,2013-05-27 23:22:00,
2013-05-27 19:32:00,62.0,32.0,29.93,WSW,239,5.0,6.0,32,0.00,,,0.00,,2013-05-27 23:32:00,
2013-05-27 20:01:00,58.0,40.0,29.95,WNW,285,0.0,0.0,51,0.00,,,0.00,,2013-05-28 00:01:00,
2013-05-27 20:11:00,58.0,40.0,29.95,WNW,285,0.0,0.0,51,0.00,,,0.00,,2013-05-28 00:11:00,
2013-05-27 20:22:00,58.0,40.0,29.95,WNW,285,0.0,0.0,51,0.00,,,0.00,,2013-05-28 00:22:00,
2013-05-27 20:32:00,58.0,40.0,29.95,WNW,285,0.0,0.0,51,0.00,,,0.00,,2013-05-28 00:32:00,
2013-05-27 20:42:00,58.0,40.0,29.95,WNW,285,0.0,0.0,51,0.00,,,0.00,,2013-05-28 00:42:00,
2013-05-27 21:22:00,57.0,51.0,29.98,North,0,255.0,255.0,80,0.00,,,0.00,,2013-05-28 01:22:00,
2013-05-27 21:32:00,57.0,51.0,29.98,North,0,255.0,255.0,80,0.00,,,0.00,,2013-05-28 01:32:00,
2013-05-27 21:42:00,57.0,51.0,29.98,North,0,255.0,255.0,80,0.00,,,0.00,,2013-05-28 01:42:00,
2013-05-27 21:52:00,57.0,51.0,29.99,North,0,255.0,255.0,80,0.00,,,0.00,,2013-05-28 01:52:00,
2013-05-27 22:02:00,57.0,51.0,29.99,North,0,255.0,255.0,80,0.00,,,0.00,,2013-05-28 02:02:00,
2013-05-27 22:11:00,57.0,51.0,29.99,North,0,255.0,255.0,80,0.00,,,0.00,,2013-05-28 02:11:00,
2013-05-27 22:22:00,57.0,51.0,29.99,North,0,255.0,255.0,80,0.00,,,0.00,,2013-05-28 02:22:00,